EW1719 Weather Reports


time (UTC)temp
C
wind
direction
speed
KPH
gust
KPH
rain 1hr
cm
rain 24hr
cm
rain mn
cm
humidity
%
barometer
mb
20260504110428 6 317 1.6 3.2 0.00 0.00 0.00 90 1018.5
20260504100107 6 317 0.0 1.6 0.00 0.00 0.00 90 1018.3
20260504081515 6 315 0.0 3.2 0.00 0.00 0.00 89 1017.9
20260504081307 6 315 0.0 3.2 0.00 0.00 0.00 89 1017.8
20260504080407 6 0 0.0 0.0 0.00 0.00 0.00 88 1017.7
20260504070107 7 315 1.6 3.2 0.00 0.00 0.00 88 1018.1
20260504050428 8 316 0.0 3.2 0.00 0.00 0.00 86 1018.6
20260504050004 8 316 0.0 1.6 0.00 0.00 0.00 86 1018.6
20260504045528 8 316 0.0 1.6 0.00 0.00 0.00 86 1018.5
20260504044607 8 316 0.0 1.6 0.00 0.00 0.00 86 1018.5
20260504044508 8 316 0.0 1.6 0.00 0.00 0.00 86 1018.5
20260504043707 9 315 0.0 3.2 0.00 0.00 0.00 85 1018.7
20260504043013 8 315 0.0 3.2 0.00 0.00 0.00 85 1018.7
20260504042807 9 315 1.6 3.2 0.00 0.00 0.00 84 1018.7
20260504041907 8 314 0.0 1.6 0.00 0.00 0.00 83 1018.6
20260504041605 8 314 0.0 1.6 0.00 0.00 0.00 82 1018.7
20260504041007 9 314 0.0 1.6 0.00 0.00 0.00 83 1018.7
20260504040129 9 0 0.0 0.0 0.00 0.00 0.00 82 1018.8
20260504040007 9 313 0.0 0.0 0.00 0.00 0.00 82 1018.7
20260504035207 10 0 0.0 0.0 0.00 0.00 0.00 82 1018.8
20260504034510 9 313 0.0 1.6 0.00 0.00 0.00 81 1018.9
20260504034308 10 313 0.0 1.6 0.00 0.00 0.00 81 1018.7
20260504033407 10 0 0.0 0.0 0.00 0.00 0.00 79 1018.8
20260504033015 9 313 0.0 1.6 0.00 0.00 0.00 79 1018.8
20260504032508 10 314 1.6 3.2 0.00 0.00 0.00 79 1018.8
20260504031608 10 314 0.0 3.2 0.00 0.00 0.00 79 1018.7
20260504031506 10 314 0.0 3.2 0.00 0.00 0.00 79 1018.7
20260504030708 10 314 0.0 3.2 0.00 0.00 0.00 79 1018.7
20260504030012 10 314 0.0 3.2 0.00 0.00 0.00 78 1018.7
20260504025808 11 314 0.0 3.2 0.00 0.00 0.00 79 1018.6
20260504024929 11 313 0.0 1.6 0.00 0.00 0.00 77 1018.6
20260504024517 10 313 0.0 1.6 0.00 0.00 0.00 78 1018.6
20260504024008 11 313 0.0 3.2 0.00 0.00 0.00 76 1018.6
20260504023108 11 314 1.6 3.2 0.00 0.00 0.00 76 1018.7
20260504023004 11 313 0.0 3.2 0.00 0.00 0.00 75 1018.7
20260504022208 11 314 0.0 1.6 0.00 0.00 0.00 75 1018.5
20260504021509 11 314 0.0 1.6 0.00 0.00 0.00 74 1018.5
20260504021329 12 314 0.0 1.6 0.00 0.00 0.00 74 1018.5
20260504020408 12 314 0.0 3.2 0.00 0.00 0.00 75 1018.4
20260504020017 12 314 0.0 3.2 0.00 0.00 0.00 74 1018.5
20260504015508 12 311 0.0 3.2 0.00 0.00 0.00 74 1018.4
20260504014629 13 279 0.0 3.2 0.00 0.00 0.00 73 1018.4
20260504014504 12 306 0.0 3.2 0.00 0.00 0.00 74 1018.4
20260504013708 13 313 0.0 1.6 0.00 0.00 0.00 69 1018.2
20260504013007 13 313 0.0 1.6 0.00 0.00 0.00 67 1018.2
20260504012808 13 313 0.0 1.6 0.00 0.00 0.00 67 1018.2
20260504011908 13 313 0.0 3.2 0.00 0.00 0.00 70 1018.1
20260504011510 13 313 0.0 3.2 0.00 0.00 0.00 66 1018.0
20260504011029 14 313 1.6 3.2 0.00 0.00 0.00 67 1018.0
20260504010108 14 313 1.6 3.2 0.00 0.00 0.00 65 1018.0
20260504010015 14 313 0.0 3.2 0.00 0.00 0.00 65 1018.0
20260504005208 15 313 1.6 1.6 0.00 0.00 0.00 65 1017.9
20260504004508 15 313 0.0 3.2 0.00 0.00 0.00 61 1017.8
20260504004308 15 300 1.6 3.2 0.00 0.00 0.00 59 1017.7
20260504003408 16 310 1.6 3.2 0.00 0.00 0.00 59 1017.7
20260504003010 16 311 0.0 3.2 0.00 0.00 0.00 59 1017.7
20260504002508 16 312 1.6 3.2 0.00 0.00 0.00 57 1017.5
20260504001608 17 310 1.6 3.2 0.00 0.00 0.00 57 1017.7
20260504001516 17 313 1.6 3.2 0.00 0.00 0.00 58 1017.6
20260504000708 18 313 1.6 3.2 0.00 0.00 0.00 57 1017.7
20260504000015 18 313 0.0 4.8 0.00 0.00 0.00 55 1017.6
20260503235808 18 296 1.6 4.8 0.00 0.00 0.00 53 1017.5
20260503234929 18 259 1.6 4.8 0.00 0.00 0.00 51 1017.6
20260503234509 18 273 0.0 8.0 0.00 0.00 0.00 48 1017.5
20260503234008 19 255 3.2 9.7 0.00 0.00 0.00 46 1017.6
20260503233108 20 246 3.2 8.0 0.00 0.00 0.00 48 1017.5
20260503233013 19 15 1.6 8.0 0.00 0.00 0.00 48 1017.5
20260503232208 20 259 3.2 8.0 0.00 0.00 0.00 46 1017.5
20260503231502 20 260 3.2 6.4 0.00 0.00 0.00 46 1017.4
20260503231308 20 258 3.2 6.4 0.00 0.00 0.00 46 1017.5
20260503230408 21 256 3.2 6.4 0.00 0.00 0.00 42 1017.4
20260503230008 20 232 1.6 6.4 0.00 0.00 0.00 44 1017.4
20260503225529 21 263 3.2 6.4 0.00 0.00 0.00 43 1017.5
20260503224608 21 216 4.8 11.3 0.00 0.00 0.00 41 1017.6
20260503224510 21 267 4.8 11.3 0.00 0.00 0.00 40 1017.6
20260503223708 21 239 3.2 9.7 0.00 0.00 0.00 39 1017.5
20260503223016 21 232 1.6 8.0 0.00 0.00 0.00 45 1017.5
20260503222808 21 271 3.2 6.4 0.00 0.00 0.00 44 1017.5
20260503221908 21 208 3.2 8.0 0.00 0.00 0.00 41 1017.6
20260503221506 21 202 1.6 8.0 0.00 0.00 0.00 39 1017.6
20260503221008 21 236 3.2 6.4 0.00 0.00 0.00 42 1017.6
20260503220108 21 220 4.8 14.5 0.00 0.00 0.00 42 1017.7
20260503220011 21 262 6.4 12.9 0.00 0.00 0.00 44 1017.7
20260503215208 21 295 1.6 6.4 0.00 0.00 0.00 42 1017.7
20260503214506 21 292 1.6 8.0 0.00 0.00 0.00 41 1017.7
20260503214308 21 302 3.2 8.0 0.00 0.00 0.00 44 1017.7
20260503213408 21 295 3.2 12.9 0.00 0.00 0.00 44 1017.8
20260503213010 21 229 1.6 12.9 0.00 0.00 0.00 41 1017.9
20260503212508 21 349 3.2 12.9 0.00 0.00 0.00 41 1017.8
20260503211608 21 340 1.6 6.4 0.00 0.00 0.00 41 1017.9
20260503211516 21 5 1.6 6.4 0.00 0.00 0.00 43 1017.9
20260503210708 21 360 3.2 6.4 0.00 0.00 0.00 44 1018.0
20260503210018 21 302 3.2 12.9 0.00 0.00 0.00 49 1018.1
20260503205829 21 300 3.2 12.9 0.00 0.00 0.00 46 1018.0
20260503204929 21 303 3.2 8.0 0.00 0.00 0.00 44 1018.2
20260503204506 20 246 1.6 6.4 0.00 0.00 0.00 49 1018.5
20260503204008 20 332 3.2 8.0 0.00 0.00 0.00 47 1018.4
20260503203108 20 252 4.8 14.5 0.00 0.00 0.00 44 1018.6
20260503203019 20 229 3.2 14.5 0.00 0.00 0.00 44 1018.6
20260503202208 21 255 4.8 11.3 0.00 0.00 0.00 48 1018.7
20260503201516 20 274 3.2 9.7 0.00 0.00 0.00 46 1018.8
20260503201308 20 272 4.8 12.9 0.00 0.00 0.00 43 1018.8
20260503200408 20 261 3.2 9.7 0.00 0.00 0.00 47 1019.0
20260503200104 20 319 1.6 9.7 0.00 0.00 0.00 44 1019.0
20260503195508 20 265 4.8 12.9 0.00 0.00 0.00 44 1019.1
20260503194608 20 256 4.8 19.3 0.00 0.00 0.00 45 1019.3
20260503194508 20 275 4.8 19.3 0.00 0.00 0.00 44 1019.3
20260503193708 20 11 3.2 12.9 0.00 0.00 0.00 44 1019.7
20260503193010 19 348 4.8 12.9 0.00 0.00 0.00 45 1019.9
20260503192808 19 355 4.8 11.3 0.00 0.00 0.00 44 1019.7
20260503191908 19 339 4.8 9.7 0.00 0.00 0.00 42 1020.0
20260503191514 19 9 3.2 8.0 0.00 0.00 0.00 43 1020.0
20260503191008 19 343 4.8 11.3 0.00 0.00 0.00 44 1020.1
20260503190108 19 270 4.8 12.9 0.00 0.00 0.00 46 1020.2
20260503190103 18 229 6.4 12.9 0.00 0.00 0.00 46 1020.3
20260503185208 18 9 4.8 12.9 0.00 0.00 0.00 46 1020.2
20260503184508 18 321 3.2 12.9 0.00 0.00 0.00 48 1020.4
20260503184329 18 311 4.8 12.9 0.00 0.00 0.00 47 1020.4
20260503183409 18 2 3.2 12.9 0.00 0.00 0.00 48 1020.6
20260503183010 18 36 3.2 8.0 0.00 0.00 0.00 49 1020.6
20260503182509 18 235 3.2 9.7 0.00 0.00 0.00 49 1020.7
20260503181608 18 299 3.2 8.0 0.00 0.00 0.00 50 1020.8
20260503181516 18 347 1.6 8.0 0.00 0.00 0.00 49 1020.9
20260503180730 18 269 3.2 11.3 0.00 0.00 0.00 50 1020.8
20260503180023 18 319 1.6 6.4 0.00 0.00 0.00 51 1021.0
20260503175808 18 281 3.2 11.3 0.00 0.00 0.00 51 1020.9
20260503174908 18 354 4.8 11.3 0.00 0.00 0.00 52 1021.0
20260503174518 17 9 3.2 12.9 0.00 0.00 0.00 54 1020.9
20260503174029 17 279 4.8 12.9 0.00 0.00 0.00 49 1020.9
20260503173108 17 65 3.2 8.0 0.00 0.00 0.00 55 1021.0
20260503173015 17 77 1.6 8.0 0.00 0.00 0.00 50 1021.0
20260503172229 17 283 3.2 9.7 0.00 0.00 0.00 49 1021.0
20260503171509 17 282 4.8 12.9 0.00 0.00 0.00 48 1021.2
20260503171308 17 231 3.2 12.9 0.00 0.00 0.00 49 1021.2
20260503170408 16 315 3.2 14.5 0.00 0.00 0.00 50 1021.2
20260503160108 15 93 4.8 11.3 0.00 0.00 0.00 57 1022.1
20260503150709 14 243 3.2 11.3 0.00 0.00 0.00 63 1022.4
20260503140103 12 99 1.6 6.4 0.00 0.00 0.00 68 1022.2
20260503131009 11 77 1.6 4.8 0.00 0.00 0.00 75 1021.7
20260503130109 11 114 1.6 4.8 0.00 0.00 0.00 77 1021.7